"Pseudo-MPEC" for A11Ggjy

Created 2026 Sep 4 2:35:04 UT using Find_Orb

Click here for an explanation of pseudo-MPECs

 
 Astrometry: 
     A11Ggjy*0C2026 09 03.50161101 50 16.644+00 50 49.81   ~93Eo 17.76oVNEOCPT08
     A11Ggjy 0C2026 09 03.51155001 49 53.774+01 00 06.66   ~93Eo 17.76oVNEOCPT08
     A11Ggjy 0C2026 09 03.51429501 49 47.110+01 02 45.64   ~93Eox17.35oVNEOCPT08
     A11Ggjy 0C2026 09 03.52115901 49 31.841+01 09 00.94   ~93Eox17.70oVNEOCPT08

Station data:
(T08) ATLAS-MLO, Mauna Loa  (N19.536150 W155.576050)  US/Hawaii.  Observers
   L. Denneau, R. Siverd, J. Tonry, H. Weiland. Measurers L. Denneau, N.
   Erasmus, A. Fitzsimmons, J. Robinson, R. Siverd, J. Tonry, H. Weiland.
   0.5-m f/2.0 Schmidt + CCD.

Orbital elements:  A11Ggjy
   Perihelion 2026 Aug 6.890082 +/- 40.5 TT = 21:21:43.1 (JD 2461259.390082)
Epoch 2026 Sep  4.0 TT = JDT 2461287.5   Earth MOID: 0.0176   Ma: 0.0279
M  17.739442805 +/- 49              (J2000 ecliptic)             AutoNEOCP
n   0.631074161 +/- 0.557           Peri.  329.324383 +/- 120
a   1.346115887 +/- 0.792           Node   342.132791 +/- 28
e   0.25916796 +/- 0.273            Incl.   23.022901 +/- 31
P   1.562/570.445d         H 24.39  G  0.15   U 12.3  SR
q 0.997245774 +/- 0.362    Q 1.694986001 +/- 30.6
2 of 4 observations 2026 Sept. 3 (14.3 min); mean residual 0".00
Residuals in arcseconds: 
260903 T08  .00   .00     260903 T08( .00   .00 )   
260903 T08  .00   .00     260903 T08( .00   .00 )   

Ephemerides (geocentric):
Date (UTC) HH   RA             Dec           delta  r     elong  mag " sig PA
---- --------  ------------   ------------  ------ ------ -----  --- --------
2026 09 04 03  01 27 51.930   +10 20 54.05  .02491 1.0269 137.1 18.1  63d  91
2026 09 04 04  01 26 23.637   +10 57 23.54  .02498 1.0270 137.2 18.1  63d  92
2026 09 04 05  01 24 55.517   +11 33 37.91  .02506 1.0271 137.3 18.1  64d  92
2026 09 04 06  01 23 27.577   +12 09 36.57  .02514 1.0272 137.5 18.1  64d  92
2026 09 04 07  01 21 59.822   +12 45 18.96  .02523 1.0273 137.6 18.1  65d  92
2026 09 04 08  01 20 32.259   +13 20 44.54  .02532 1.0274 137.7 18.1  65d  92
2026 09 04 09  01 19 04.896   +13 55 52.79  .02541 1.0275 137.7 18.1  65d  93
2026 09 04 10  01 17 37.737   +14 30 43.23  .02551 1.0275 137.8 18.1  66d  93
2026 09 04 11  01 16 10.791   +15 05 15.41  .02561 1.0276 137.9 18.1  66d  93
2026 09 04 12  01 14 44.062   +15 39 28.90  .02572 1.0277 137.9 18.1  66d  93
2026 09 04 13  01 13 17.556   +16 13 23.31  .02582 1.0278 138.0 18.1  66d  93
2026 09 04 14  01 11 51.281   +16 46 58.25  .02594 1.0279 138.0 18.1  66d  93
2026 09 04 15  01 10 25.241   +17 20 13.39  .02605 1.0280 138.1 18.1  66d  93
2026 09 04 16  01 08 59.443   +17 53 08.41  .02617 1.0281 138.1 18.1  66d  94
2026 09 04 17  01 07 33.892   +18 25 43.02  .02629 1.0281 138.1 18.2  66d  94
2026 09 04 18  01 06 08.593   +18 57 56.96  .02641 1.0282 138.1 18.2  66d  94
2026 09 04 19  01 04 43.553   +19 29 49.99  .02654 1.0283 138.1 18.2  66d  94
2026 09 04 20  01 03 18.776   +20 01 21.89  .02667 1.0284 138.1 18.2  66d  95
2026 09 04 21  01 01 54.269   +20 32 32.48  .02681 1.0285 138.1 18.2  66d  95
2026 09 04 22  01 00 30.035   +21 03 21.61  .02694 1.0286 138.1 18.2  65d  95
2026 09 04 23  00 59 06.079   +21 33 49.11  .02708 1.0287 138.0 18.2  65d  95
2026 09 05 00  00 57 42.408   +22 03 54.89  .02723 1.0288 138.0 18.2  65d  96
2026 09 05 01  00 56 19.026   +22 33 38.85  .02737 1.0288 137.9 18.3  65d  96
2026 09 05 02  00 54 55.936   +23 03 00.91  .02752 1.0289 137.9 18.3  64d  96
2026 09 05 03  00 53 33.145   +23 32 01.01  .02767 1.0290 137.8 18.3  64d  96
2026 09 05 04  00 52 10.656   +24 00 39.14  .02783 1.0291 137.8 18.3  64d  97
2026 09 05 05  00 50 48.473   +24 28 55.27  .02799 1.0292 137.7 18.3  63d  97
2026 09 05 06  00 49 26.601   +24 56 49.40  .02815 1.0293 137.6 18.3  63d  97
2026 09 05 07  00 48 05.044   +25 24 21.57  .02831 1.0294 137.6 18.3  63d  97
2026 09 05 08  00 46 43.806   +25 51 31.80  .02848 1.0295 137.5 18.3  62d  97
2026 09 05 09  00 45 22.891   +26 18 20.15  .02864 1.0295 137.4 18.4  62d  98
2026 09 05 10  00 44 02.301   +26 44 46.69  .02881 1.0296 137.3 18.4  62d  98
2026 09 05 11  00 42 42.042   +27 10 51.50  .02899 1.0297 137.2 18.4  61d  98
2026 09 05 12  00 41 22.117   +27 36 34.69  .02916 1.0298 137.1 18.4  61d  98
2026 09 05 13  00 40 02.528   +28 01 56.35  .02934 1.0299 137.0 18.4  61d  98
2026 09 05 14  00 38 43.280   +28 26 56.61  .02952 1.0300 136.9 18.4  60d  99
2026 09 05 15  00 37 24.374   +28 51 35.61  .02970 1.0301 136.8 18.5  60d  99
2026 09 05 16  00 36 05.815   +29 15 53.48  .02989 1.0302 136.7 18.5  60d  99
2026 09 05 17  00 34 47.606   +29 39 50.38  .03007 1.0302 136.6 18.5  59d  99
2026 09 05 18  00 33 29.748   +30 03 26.47  .03026 1.0303 136.5 18.5  59d  99
2026 09 05 19  00 32 12.245   +30 26 41.92  .03045 1.0304 136.4 18.5  59d 100
2026 09 05 20  00 30 55.099   +30 49 36.91  .03065 1.0305 136.2 18.5  58d 100
2026 09 05 21  00 29 38.313   +31 12 11.63  .03084 1.0306 136.1 18.6  58d 100
2026 09 05 22  00 28 21.889   +31 34 26.26  .03104 1.0307 136.0 18.6  57d 100
2026 09 05 23  00 27 05.829   +31 56 21.00  .03124 1.0308 135.9 18.6  57d 100
2026 09 06 00  00 25 50.135   +32 17 56.06  .03144 1.0309 135.7 18.6  57d 100
2026 09 06 01  00 24 34.810   +32 39 11.65  .03164 1.0310 135.6 18.6  56d 101
2026 09 06 02  00 23 19.856   +33 00 07.98  .03185 1.0310 135.5 18.6  56d 101